www.pogodaiklimat.ru

Погода и климат >> Архив погоды >> Норвегия >> Хасвик аэропорт


ПОГОДА в Хасвик аэропорту

  • Прогноз погоды в Хасвик аэропорту
  • Монитор погоды в Хасвик аэропорту

АРХИВ ПОГОДЫ в Хасвик аэропорту

Время (UTC), дата Ветер
(напр.,м/с)
 
Видим.   Явления Облачность Т
(С)
Тd
(С)
f
(%)
Тe
(С)
Тes
(С)
Комфортность P
(гПа)
Po
(гПа)
Тmin
(С)
Tmax
(С)
R
(мм)
R24
(мм)
S
(см)
04 9.01 штиль 0
{1}
н/о н/о -2.8 -4.2 90 -4 -4 1010.1 1009.2
05 9.01 С 1
{4}
н/о н/о +0.8 +0.8 100 -1 -1 1010.4 1009.6
06 9.01 ЮВ 1
{4}
н/о н/о -0.6 -0.6 100 -3 -3 1010.5 1009.7 -6.4 +1.3
08 9.01 Ю 4
{5}
н/о н/о +1.1 +1.1 100 -4 -4 1011.1 1010.2
07 9.01 Ю 2
{4}
н/о н/о +1.5 +1.4 99 -2 -2 1010.7 1009.9
09 9.01 Ю 3
{5}
н/о н/о +1.6 +0.6 93 -3 -3 1011.0 1010.2
10 9.01 Ю 3
{5}
н/о н/о +1.8 -0.3 86 -3 -3 1010.9 1010.1
11 9.01 Ю 3
{5}
н/о н/о +2.1 -1.1 79 -2 -2 1010.9 1010.0
12 9.01 ЮЗ 4
{8}
н/о н/о +2.8 -2.3 69 -2 -2 1010.9 1010.0
14 9.01 СЗ 9
{11}
н/о н/о +2.6 -1.0 77 -4 -4 1010.7 1009.8
13 9.01 З 8
{12}
н/о н/о +1.7 +1.4 98 -6 -6 1010.7 1009.9
15 9.01 СЗ 9
{15}
н/о н/о +2.2 -1.7 75 -5 -5 1011.1 1010.2
16 9.01 З 8
{15}
н/о н/о +2.3 -3.4 66 -4 -4 1011.2 1010.3
17 9.01 СЗ 11
{16}
н/о н/о +1.3 -2.6 75 -7 -7 1011.1 1010.2
18 9.01 З 7
{16}
н/о н/о +1.0 -2.2 79 -6 -6 1010.8 1009.9 -0.6 +2.8
20 9.01 З 5
{10}
н/о н/о +1.4 -3.8 68 -4 -4 1009.4 1008.5
19 9.01 З 7
{13}
н/о н/о +1.2 -4.8 64 -5 -5 1010.2 1009.3
21 9.01 ЮЗ 5
{9}
н/о н/о +1.1 -5.5 61 -4 -4 1008.8 1008.0
22 9.01 ЮЗ 5
{8}
н/о н/о +1.0 -5.0 64 -4 -4 1007.4 1006.6
23 9.01 ЮЗ 4
{9}
н/о н/о +1.2 -5.4 61 -3 -3 1006.1 1005.2
00 10.01 Ю 3
{13}
н/о н/о +1.2 -6.1 58 -3 -3 1004.6 1003.7
02 10.01 Ю 7
{10}
н/о н/о +1.4 -5.3 61 -5 -5 1000.9 1000.1
01 10.01 Ю 3
{7}
н/о н/о +1.5 -5.6 59 -2 -2 1003.0 1002.1
03 10.01 Ю 8
{12}
н/о н/о +1.2 -5.4 61 -5 -5 998.4 997.6
04 10.01 Ю 9
{13}
н/о н/о +0.9 -4.1 69 -6 -6 995.5 994.7
05 10.01 Ю 9
{13}
н/о н/о +0.5 -2.4 81 -7 -7 992.4 991.6
06 10.01 ЮВ 11
{15}
н/о н/о +0.4 -0.4 94 -8 -8 989.0 988.1 -0.1 +1.8
08 10.01 ЮВ 10
{14}
н/о н/о +1.2 +0.6 96 -7 -7 983.2 982.4
07 10.01 ЮВ 10
{14}
н/о н/о +0.5 +0.5 100 -8 -8 986.1 985.3
09 10.01 Ю 9
{14}
н/о н/о +1.8 +0.6 92 -6 -6 980.7 979.8
10 10.01 ЮВ 7
{11}
н/о н/о +2.7 +1.1 89 -4 -4 978.1 977.3
11 10.01 ЮВ 6
{10}
н/о н/о +3.6 +1.0 83 -2 -2 975.7 974.9
12 10.01 Ю 5
{14}
н/о н/о +4.2 +0.4 76 -1 -1 973.8 972.9
14 10.01 Ю 4
{9}
н/о н/о +4.8 +1.1 77 +1 +1 968.8 967.9
13 10.01 Ю 6
{9}
н/о н/о +4.7 +0.9 76 -0 -0 971.1 970.3
15 10.01 З 12
{19}
н/о н/о +4.1 +1.0 80 -3 -3 968.4 967.5
16 10.01 З 15
{22}
н/о н/о +2.4 +0.6 88 -6 -6 969.6 968.7
17 10.01 З 14
{25}
н/о н/о +1.7 -1.9 77 -7 -7 969.7 968.8
18 10.01 З 14
{25}
н/о н/о +0.3 +0.2 99 -9 -9 968.7 967.8 +0.2 +5.0
20 10.01 З 9
{17}
н/о н/о +0.7 -0.7 90 -7 -7 966.9 966.1
19 10.01 З 10
{19}
н/о н/о +0.4 0.0 97 -8 -8 967.5 966.6
21 10.01 ЮЗ 5
{14}
н/о н/о +0.4 -1.8 85 -6 -6 965.7 964.9
22 10.01 ЮЗ 5 н/о н/о 0.0 -0.9 94 -6 -6 964.7 963.8
23 10.01 Ю 6 н/о н/о +0.5 -2.5 80 -6 -6 962.9 962.1
00 11.01 ЮВ 8
{19}
н/о н/о +0.7 -3.0 76 -6 -6 960.9 960.1
02 11.01 ЮВ 6
{12}
н/о н/о +1.2 -3.8 69 -5 -5 959.4 958.6
01 11.01 Ю 8
{12}
н/о н/о +1.3 -4.5 65 -5 -5 960.0 959.2
03 11.01 ЮВ 8
{11}
н/о н/о +1.1 -3.2 73 -6 -6 958.8 957.9
04 11.01 ЮВ 4
{10}
н/о н/о +0.3 -1.7 86 -5 -5 958.7 957.9
05 11.01 Ю 3
{6}
н/о н/о +0.4 +0.4 100 -4 -4 959.5 958.7
06 11.01 В 6
{12}
н/о н/о +0.2 +0.2 100 -7 -7 960.0 959.2 -0.3 +1.6
08 11.01 С 7
{13}
н/о н/о +1.0 -2.0 80 -6 -6 964.9 964.0
07 11.01 В 4
{7}
н/о н/о 0.0 0.0 100 -6 -6 962.1 961.2
09 11.01 С 2
{9}
н/о н/о +1.6 -1.8 78 -2 -2 966.5 965.7
10 11.01 С 4
{10}
н/о н/о +2.5 -2.6 69 -2 -2 968.4 967.6
11 11.01 СЗ 8
{12}
н/о н/о +3.1 -2.4 67 -3 -3 968.9 968.1
12 11.01 С 9
{16}
н/о н/о +2.2 -0.2 84 -5 -5 970.1 969.3
14 11.01 С 10
{21}
н/о н/о +2.6 -2.5 69 -4 -4 973.6 972.8
13 11.01 С 12
{20}
н/о н/о +2.9 -2.0 70 -5 -5 971.9 971.1
15 11.01 СЗ 11
{22}
н/о н/о +1.8 -2.3 74 -6 -6 975.3 974.4
16 11.01 СЗ 17
{25}
н/о н/о +1.5 -1.7 79 -8 -8 976.4 975.5
17 11.01 СЗ 16
{29}
н/о н/о +1.4 -2.5 75 -8 -8 977.5 976.6
18 11.01 СЗ 20
{33}
н/о н/о +1.2 -2.5 76 -9 -9 978.1 977.2 0.0 +3.2
20 11.01 СЗ 19
{27}
н/о н/о +1.1 -3.0 74 -9 -9 979.1 978.2
19 11.01 СЗ 18
{26}
н/о н/о +0.7 -0.9 89 -9 -9 978.5 977.7
21 11.01 СЗ 18
{29}
н/о н/о +1.0 -2.6 77 -9 -9 979.6 978.8
22 11.01 СЗ 19
{25}
н/о н/о +0.4 0.0 97 -10 -10 980.0 979.2
23 11.01 СЗ 18
{25}
н/о н/о +0.7 -0.7 90 -9 -9 979.7 978.9
00 12.01 СЗ 18
{29}
н/о н/о +1.3 -0.6 87 -8 -8 979.7 978.9
02 12.01 СЗ 12
{22}
н/о н/о +2.1 -1.1 79 -6 -6 981.3 980.5
01 12.01 С 12
{27}
н/о н/о +1.9 -1.9 76 -6 -6 980.5 979.7
03 12.01 СЗ 14
{24}
н/о н/о +1.6 -0.8 84 -7 -7 981.7 980.9
04 12.01 СЗ 14
{24}
н/о н/о +1.5 -1.4 81 -7 -7 982.1 981.2
05 12.01 СЗ 15
{24}
н/о н/о +2.1 -2.8 70 -6 -6 982.1 981.3
06 12.01 СЗ 17
{27}
н/о н/о +2.0 -2.9 70 -7 -7 982.4 981.6 +0.3 +2.2
08 12.01 С 9
{21}
н/о н/о 0.0 0.0 100 -8 -8 983.7 982.8
07 12.01 СЗ 15
{23}
н/о н/о +1.9 -2.4 73 -7 -7 983.0 982.1
09 12.01 С 6
{19}
н/о н/о +0.1 +0.1 100 -7 -7 984.0 983.1
10 12.01 С 3
{9}
н/о н/о +0.1 +0.1 100 -5 -5 983.8 982.9
11 12.01 С 7
{17}
н/о н/о +0.8 -1.1 87 -6 -6 984.0 983.2
12 12.01 С 5
{23}
н/о н/о +1.2 -3.6 70 -4 -4 983.8 983.0
14 12.01 С 7
{11}
н/о н/о +1.2 -2.7 75 -5 -5 984.1 983.3
13 12.01 С 8
{17}
н/о н/о +0.9 -3.4 73 -6 -6 984.2 983.4
15 12.01 С 5
{10}
н/о н/о +0.8 -2.6 78 -5 -5 984.1 983.3
16 12.01 С 6
{10}
н/о н/о +1.0 -3.5 72 -5 -5 983.7 982.9
17 12.01 С 4
{8}
н/о н/о +1.1 -4.3 67 -4 -4 983.4 982.5
18 12.01 С 4
{17}
н/о н/о +1.1 -3.2 73 -4 -4 983.2 982.3 -0.7 +2.2
20 12.01 С 3
{9}
н/о н/о -0.6 -1.7 92 -6 -6 982.7 981.8
19 12.01 С 6
{12}
н/о н/о +0.3 -2.9 79 -6 -6 983.1 982.3
21 12.01 С 5
{9}
н/о н/о -1.3 -1.3 100 -8 -8 982.4 981.6
22 12.01 З 6
{11}
н/о н/о -1.1 -1.1 100 -8 -8 981.5 980.7
23 12.01 СЗ 5
{8}
н/о н/о -0.1 -3.5 78 -6 -6 980.8 980.0
00 13.01 СЗ 6
{12}
н/о н/о +0.5 -4.5 69 -6 -6 980.1 979.3
02 13.01 З 6
{9}
н/о н/о +0.3 -4.1 72 -6 -6 978.9 978.1
01 13.01 З 6
{10}
н/о н/о -0.8 -1.3 96 -8 -8 979.8 978.9
03 13.01 З 3
{9}
н/о н/о -0.5 -3.9 78 -5 -5 978.1 977.3
04 13.01 СЗ 6
{9}
н/о н/о 0.0 -3.4 78 -6 -6 977.3 976.5
05 13.01 З 7
{11}
н/о н/о -0.4 -2.6 85 -8 -8 976.8 976.0
06 13.01 З 6
{11}
н/о н/о -0.7 -4.3 77 -7 -7 976.3 975.4 -2.1 +1.5
08 13.01 ЮЗ 5
{9}
н/о н/о -0.7 -3.2 83 -7 -7 975.9 975.1
07 13.01 ЮЗ 6
{9}
н/о н/о -1.3 -2.4 92 -8 -8 976.1 975.2
09 13.01 ЮЗ 1
{7}
н/о н/о -1.8 -2.2 97 -4 -4 975.8 974.9
10 13.01 ЮЗ 3
{5}
н/о н/о -1.1 -4.8 76 -6 -6 975.5 974.7
11 13.01 ЮЗ 3
{6}
н/о н/о -0.7 -5.1 72 -5 -5 975.4 974.5
12 13.01 З 3
{9}
н/о н/о -0.7 -5.6 69 -5 -5 975.2 974.3
14 13.01 ЮЗ 2
{4}
н/о н/о -1.2 -4.6 78 -5 -5 975.0 974.2
13 13.01 С 2
{4}
н/о н/о -1.6 -3.4 88 -6 -6 975.0 974.1
15 13.01 Ю 2
{4}
н/о н/о -1.4 -3.9 83 -5 -5 975.2 974.3
16 13.01 СЗ 1
{3}
н/о н/о -2.0 -2.6 96 -4 -4 975.3 974.5
17 13.01 штиль 0
{3}
н/о н/о -2.3 -2.8 96 -4 -4 975.4 974.5
18 13.01 штиль 0
{4}
н/о н/о -2.5 -2.6 99 -4 -4 975.6 974.7 -2.6 -0.5
20 13.01 штиль 0
{1}
н/о н/о -2.5 -2.6 99 -4 -4 976.2 975.3
19 13.01 штиль 0
{1}
н/о н/о -2.6 -2.7 99 -4 -4 975.9 975.1
21 13.01 В 1
{2}
н/о н/о -2.3 -2.5 99 -5 -5 976.5 975.6
22 13.01 штиль 0
{1}
н/о н/о -3.7 -4.3 96 -5 -5 976.9 976.0
23 13.01 В 2
{3}
н/о н/о -1.7 -3.2 89 -6 -6 977.2 976.4
00 14.01 ЮВ 1
{3}
н/о н/о -1.3 -4.6 78 -3 -3 977.7 976.8
02 14.01 Ю 2
{3}
н/о н/о -2.2 -5.7 77 -6 -6 978.8 977.9
01 14.01 Ю 2
{3}
н/о н/о -1.6 -5.5 75 -5 -5 978.1 977.3
03 14.01 ЮВ 1
{2}
н/о н/о -3.1 -5.6 83 -5 -5 979.4 978.5
04 14.01 ЮВ 1
{2}
н/о н/о -3.0 -6.2 79 -5 -5 979.8 978.9
05 14.01 штиль 0
{1}
н/о н/о -3.8 -5.7 87 -5 -5 980.3 979.5
06 14.01 В 2
{3}
н/о н/о -3.8 -5.8 86 -8 -8 980.9 980.1 -4.0 -1.1
08 14.01 В 2
{3}
н/о н/о -4.0 -5.9 87 -8 -8 982.6 981.7
07 14.01 ЮВ 1
{2}
н/о н/о -3.5 -5.4 87 -6 -6 981.8 980.9
09 14.01 В 3
{4}
н/о н/о -2.1 -4.3 85 -7 -7 983.2 982.3
10 14.01 штиль 0
{6}
н/о н/о -2.7 -6.5 75 -4 -4 983.6 982.8
11 14.01 ЮВ 1
{2}
н/о н/о -4.0 -5.9 87 -6 -6 984.3 983.5
12 14.01 штиль 0
{6}
н/о н/о -4.3 -6.1 87 -5 -5 984.8 983.9
14 14.01 штиль 0
{2}
н/о н/о -3.5 -6.0 83 -5 -5 985.4 984.5
13 14.01 штиль 0
{2}
н/о н/о -3.5 -6.0 83 -5 -5 985.4 984.5
15 14.01 ЮВ 1
{2}
н/о н/о -3.1 -6.0 80 -5 -5 986.5 985.6
16 14.01 В 3
{3}
н/о н/о -2.9 -6.3 77 -8 -8 987.1 986.2
17 14.01 В 4
{5}
н/о н/о -1.1 -4.2 79 -7 -7 987.6 986.7
18 14.01 В 3
{5}
н/о н/о -0.9 -3.7 81 -6 -6 988.0 987.1 -5.4 -0.6
20 14.01 В 3
{5}
н/о н/о -1.1 -3.5 84 -6 -6 988.7 987.9
19 14.01 В 3
{5}
н/о н/о -1.1 -3.5 84 -6 -6 988.4 987.5
21 14.01 В 3
{4}
н/о н/о -1.6 -4.1 83 -7 -7 989.1 988.2
22 14.01 В 4
{6}
н/о н/о -0.9 -3.9 80 -6 -6 989.4 988.5
23 14.01 В 4
{7}
н/о н/о -1.1 -3.9 81 -7 -7 989.6 988.7
00 15.01 В 4
{7}
н/о н/о -0.7 -3.1 84 -6 -6 989.6 988.7
02 15.01 ЮВ 4
{7}
н/о н/о -0.4 -3.8 78 -6 -6 989.9 989.1
01 15.01 В 5
{6}
н/о н/о -0.8 -3.5 82 -7 -7 989.7 988.8
04 15.01 ЮВ 4
{6}
н/о н/о -0.4 -4.8 72 -6 -6 990.0 989.1
05 15.01 ЮВ 5
{6}
н/о н/о -0.6 -6.1 66 -6 -6 990.1 989.2
06 15.01 Ю 4
{7}
н/о н/о -1.1 -7.3 63 -6 -6 990.2 989.4 -1.9 -0.2
08 15.01 Ю 3
{6}
н/о н/о -1.9 -6.6 70 -7 -7 990.8 989.9
07 15.01 Ю 4
{5}
н/о н/о -1.6 -7.4 65 -7 -7 990.4 989.5
09 15.01 Ю 3
{4}
н/о н/о -1.3 -6.0 70 -6 -6 991.0 990.1
10 15.01 Ю 3
{4}
н/о н/о -1.4 -6.1 70 -6 -6 991.2 990.3
11 15.01 Ю 3
{4}
н/о н/о -1.3 -6.4 68 -6 -6 991.2 990.3
12 15.01 Ю 3
{6}
н/о н/о -1.4 -6.3 69 -6 -6 991.2 990.3
14 15.01 ЮВ 1
{2}
н/о н/о -4.1 -6.7 82 -6 -6 991.7 990.8
13 15.01 В 1
{4}
н/о н/о -3.5 -6.4 80 -6 -6 991.4 990.6
15 15.01 В 3
{5}
н/о н/о -3.1 -6.5 77 -8 -8 992.1 991.2
16 15.01 В 3
{4}
н/о н/о -2.5 -6.2 76 -7 -7 992.2 991.4
17 15.01 В 3
{4}
н/о н/о -2.9 -6.6 76 -8 -8 992.4 991.6
18 15.01 В 3
{5}
н/о н/о -2.6 -5.8 79 -8 -8 992.6 991.7 -5.1 -0.6
20 15.01 В 2
{4}
н/о н/о -2.6 -5.8 79 -6 -6 993.0 992.1
19 15.01 В 3
{4}
н/о н/о -2.7 -5.6 80 -8 -8 992.7 991.8
21 15.01 ЮВ 1
{3}
н/о н/о -4.7 -8.0 78 -7 -7 993.3 992.4
22 15.01 В 1
{2}
н/о н/о -4.1 -7.6 77 -6 -6 993.3 992.5
23 15.01 Ю 1
{3}
н/о н/о -2.8 -6.0 79 -5 -5 993.3 992.5
00 16.01 ЮВ 1
{4}
н/о н/о -2.7 -5.9 79 -5 -5 993.4 992.5
02 16.01 В 3
{4}
н/о н/о -2.3 -5.5 79 -7 -7 993.5 992.6
01 16.01 В 2
{3}
н/о н/о -3.4 -6.2 81 -7 -7 993.4 992.5
03 16.01 В 4
{6}
н/о н/о -2.2 -5.6 77 -8 -8 993.6 992.7

 

Местоположение метеостанции Хасвик аэропорт (Норвегия): широта 70.49 долгота 22.15 высота над уровнем моря 6 м.

В архиве по умолчанию представлена погода в Хасвик аэропорту за последнюю неделю. Архивные данные за месяц целиком и за предыдущие месяцы, начиная с января 2011 года, Вы можете получить, выбрав интересующий диапазон дат из раскрывающегося списка и нажав кнопку "Ввод!".


*Определитесь, кто Вы:
робот инопланетянин человек

Внимание! Время в таблицах - всемирное. Для получения местного времени необходимо прибавить поправку, которая равна 1 ч.

Смотрите также архив погоды в соседних городах и на ближайших метеорологических станциях:

Погода на Хасвике (Норвегия) (16 км)
Погода в Рогнсундете (Норвегия) (26 км)
Погода в Хаммерфест аэропорту (Норвегия) (50 км)
Погода в Альта аэропорту (Норвегия) (73 км)
Погода в Сёрхьюсен аэропорту (Норвегия) (90 км)
Погода на Маяке Fruholmen (Норвегия) (95 км)
Погода на Маяке Torsvag (Норвегия) (103 км)
Погода в Суоловуопми-Лулит (Норвегия) (114 км)
Погода в Банаке (Норвегия) (117 км)
Погода в Норднесфьеллете (Норвегия) (121 км)

Пояснения к столбцам:

Ветер - указаны скорость ветра в м/с - средняя за 10 мин, порывы в срок и между сроками (в фигурных скобках) и направление, откуда дует ветер: С - северный, СВ - северо-восточный, В - восточный, ЮВ - юго-восточный, Ю - южный, ЮЗ - юго-западный, З - западный, СЗ - северо-западный.
Видимость - горизонтальная дальность видимости в метрах или километрах. При видимости от 1 до 10 км при отсутствии осадков обычно наблюдается дымка, при ухудшении видимости до 1 км и менее - туман. В сухую погоду видимость может ухудшаться дымом, пылью или мглою.
Явления - указаны атмосферные явления, наблюдавшиеся в срок или в последний час перед сроком; фигурными скобками обозначены явления, наблюдавшиеся между сроками (за 1-3 часа до срока); квадратными скобками обозначены град или гололедные отложения с указанием их диаметра в мм.
Облачность - указаны через наклонную черту общая и нижняя облачность в баллах и высота нижней границы облаков в метрах; квадратными скобками обозначены формы облаков: Ci - перистые, Cs - перисто-слоистые, Cc - перисто-кучевые, Ac - высококучевые, As - высокослоистые, Sc - слоисто-кучевые, Ns - слоисто-дождевые, Cu - кучевые, Cb - кучево-дождевые. Подробнее классификацию облаков см. в Атласе облаков (PDF).
T - Температура воздуха - температура, измеренная на высоте 2 м над землей.
Td - Температура точки росы - температура, при понижении до которой содержащийся в воздухе водяной пар достигнет насыщения.
f - Относительная влажность воздуха - влажноcть воздуха, измеренная на высоте 2 м над землей.
Te - Эффективная температура - температура, которую ощущает одетый по сезону человек в тени. Характеристика душности погоды. При расчете учитывается влияние влажности воздуха и скорости ветра на теплоощущения человека.
Tes - Эффективная температура на солнце - температура, которую ощущает человек, с поправкой на солнечный нагрев. Характеристика знойности погоды. Зависит от высоты солнца над горизонтом, облачности и скорости ветра. Ночью, в пасмурную погоду, а также при ветре 12 м/с и более поправка равна нулю.
P - Атмосферное давление - приведенное к уровню моря атмосферное давление.
Po - Атмосферное давление - измеренное на уровне метеостанции атмосферное давление.
Tmin - Минимальная температура - минимум температуры воздуха на высоте 2 м над землей.
Tmax - Максимальная температура - максимум температуры воздуха на высоте 2 м над землей.
R - Количество осадков - Количество выпавших осадков за период времени, мм. При наведении курсора мыши на число - период времени, за который выпало указанное количество осадков.
R24 - Количество осадков - Количество выпавших осадков за 24 часа, мм.
S - Снежный покров - Высота снежного покрова, см. При наведении курсора мыши на число - состояние снежного покрова и степень покрытия местности в баллах.